Location: ????????
(55.0559°N, 39.1270°E)
Time: 01:29:45
(UTC+00:00)

SeaSat 1 - Pass Details

Date: 15 November 2025
Orbit: 737 x 740 km, 108.0° (Epoch: 11 December)

Event Time Altitude Azimuth Distance (km) Brightness Sun altitude
Rises 02:18:18 0° 35° (NE) 3,189 6.2 -22.2°
Reaches altitude 10° 02:21:14 10° 17° (NNE) 2,263 5.1 -21.7°
Enters shadow 02:24:14 18° 339° (NNW) 1,799 4.2 -21.3°
